Tacoma Narrows, WA
on Sunday, November 18, 2012

Sunday
Previous Day Next Day
Daily Summary
 ActualAverageRecord
Temperature
Mean Temperature °F °F  
Max Temperature 48°F 48°F 55°F (2003)
Min Temperature 44°F 40°F 30°F (2000)
Degree Days
Heating Degree Days 19    
Moisture
Dew Point 40°F   
Average Humidity 80    
Maximum Humidity 90    
Minimum Humidity 69    
Precipitation
Precipitation 0.44 in in in ()
Wind
Wind Speed 8 mph   
Max Wind Speed 20 mph   
Max Gust Speed 25 mph   
Visibility 10 miles   
Events Rain   
Averages and records for this station are not official NWS values.
Key: T is trace of precipitation, MM is missing value
Source: NWS Daily Summary
Seasonal Weather Averages
Time(PST)TemperatureDew PointHumidity Pressure Visibility Wind DirectionWind SpeedGust SpeedPrecipitationEvents Conditions
12:53 AM 44.1°F 37.9°F 79% 29.72 in 10.0 miles SSE 6.9 mph - N/A   Mostly Cloudy
1:53 AM 45.0°F 39.0°F 80% 29.73 in 10.0 miles South 8.1 mph - N/A   Mostly Cloudy
2:53 AM 45.0°F 39.9°F 82% 29.75 in 10.0 miles South 8.1 mph - 0.00 in   Overcast
3:48 AM 44.6°F 39.2°F 81% 29.75 in 6.0 miles SSW 10.4 mph - 0.09 in Rain Light Rain
3:53 AM 44.1°F 39.9°F 85% 29.76 in 9.0 miles SSW 11.5 mph - 0.09 in Rain Light Rain
4:19 AM 44.6°F 39.2°F 81% 29.75 in 10.0 miles South 6.9 mph - 0.00 in Rain Light Rain
4:53 AM 44.1°F 39.9°F 85% 29.76 in 10.0 miles South 8.1 mph - 0.00 in   Overcast
5:53 AM 45.0°F 39.0°F 80% 29.75 in 10.0 miles South 9.2 mph - N/A   Mostly Cloudy
6:53 AM 44.1°F 39.9°F 85% 29.75 in 10.0 miles South 8.1 mph - 0.02 in Rain Light Rain
7:53 AM 44.1°F 39.9°F 85% 29.75 in 10.0 miles South 4.6 mph - 0.03 in Rain Light Rain
8:53 AM 44.1°F 41.0°F 89% 29.75 in 10.0 miles SSE 4.6 mph - 0.03 in Rain Light Rain
9:53 AM 45.0°F 42.1°F 90% 29.75 in 10.0 miles SE 3.5 mph - 0.03 in   Overcast
10:53 AM 46.9°F 41.0°F 80% 29.76 in 10.0 miles SSE 6.9 mph - N/A   Overcast
11:53 AM 46.9°F 41.0°F 80% 29.73 in 10.0 miles SSE 6.9 mph - 0.00 in Rain Light Rain
12:53 PM 48.0°F 39.9°F 74% 29.70 in 10.0 miles South 5.8 mph - 0.00 in   Overcast
1:53 PM 48.9°F 41.0°F 74% 29.68 in 10.0 miles South 4.6 mph - 0.01 in Rain Light Rain
2:53 PM 48.0°F 39.9°F 74% 29.65 in 10.0 miles SSE 8.1 mph - 0.00 in Rain Light Rain
3:53 PM 48.0°F 39.0°F 71% 29.62 in 10.0 miles SSE 8.1 mph - 0.01 in   Overcast
4:53 PM 48.9°F 39.0°F 69% 29.58 in 10.0 miles SE 9.2 mph 17.3 mph N/A   Overcast
5:53 PM 48.9°F 39.9°F 71% 29.54 in 8.0 miles SSE 9.2 mph 18.4 mph 0.03 in Rain Light Rain
6:53 PM 46.9°F 42.1°F 83% 29.53 in 10.0 miles South 9.2 mph - 0.03 in Rain Light Rain
7:53 PM 48.9°F 41.0°F 74% 29.55 in 10.0 miles South 19.6 mph 25.3 mph 0.04 in Rain Light Rain
8:53 PM 48.9°F 42.1°F 77% 29.57 in 10.0 miles South 12.7 mph - 0.03 in Rain Light Rain
9:53 PM 48.0°F 43.0°F 83% 29.58 in 10.0 miles South 10.4 mph - 0.03 in Rain Light Rain
10:53 PM 48.0°F 43.0°F 83% 29.57 in 10.0 miles SSE 10.4 mph 16.1 mph 0.04 in Rain Light Rain
11:53 PM 48.0°F 42.1°F 80% 29.57 in 10.0 miles SSE 11.5 mph 21.9 mph 0.02 in   Overcast
Moon Phase
Nov. 18 Nov. 20 Nov. 28 Dec. 06 Dec. 13
Sunrise:07:19 AM (PST) Moon Rise:11:45 AM (PST)11/18
Sunset:04:31 PM (PST) Moon Set:10:03 PM (PST)11/18

Copyright © 2014 The Weather Underground, Inc.